Location: Asheville, NC
(35.6000°N, 82.5500°W)
Time: 03:10:37
(UTC-04:00)

Vanguard 1 - Pass Details

Date: 08 March 2018
Orbit: 650 x 3833 km, 34.3° (Epoch: 19 June)

Event Time Altitude Azimuth Distance (km) Brightness Sun altitude
Rises 14:41:10 0° 279° (W) 7,703 15.0 40.8°
Reaches altitude 10° 14:46:53 10° 278° (W) 6,379 14.7 40.1°
Maximum altitude 15:05:28 76° 197° (SSW) 2,278 12.9 37.4°
Drops below altitude 10° 15:15:17 10° 114° (ESE) 3,612 12.8 35.9°
Sets 15:17:36 0° 112° (ESE) 4,303 13.1 35.5°
